Station WAHV2 - 8631044 - Wachapreague, VA Image indicating link to RSS feed of recent meteorological observations for station WAHV2


Conditions at WAHV2 as of
(5:00 pm EDT)
2100 GMT on 06/08/2023:
     

Click on the graph icon in the table below to see a time series plot of the last five days of that observation.

5-day plot - Wind Direction Wind Direction (WDIR):ENE ( 60 deg true )
5-day plot - Wind Speed Wind Speed (WSPD): 9.9 kts
5-day plot - Wind Gust Wind Gust (GST): 13.0 kts
5-day plot - Atmospheric Pressure Atmospheric Pressure (PRES):29.69 in
5-day plot - Pressure Tendency Pressure Tendency (PTDY):+0.01 in ( Rising )
5-day plot - Air Temperature Air Temperature (ATMP): 61.7 °F
5-day plot - Water Temperature Water Temperature (WTMP): 72.1 °F
5-day plot - Wind Speed at 10 Meters Wind Speed at 10 meters (WSPD10M): 9.7 kts
5-day plot - Wind Speed at 20 Meters Wind Speed at 20 meters (WSPD20M): 11.7 kts
5-day plot -  Wind Speed, Wind Gust and Atmospheric Pressure Combined plot of Wind Speed, Gust, and Air Pressure
NOS Water Level Observation Network Water Level
Previous observations
TIME
(EDT)
5-day plot - Wind Direction
WDIR
 
5-day plot - Wind Speed
WSPD
kts
5-day plot - Wind Gust
GST
kts
5-day plot - Wave Height
WVHT
ft
5-day plot - Dominant Wave Period
DPD
sec
5-day plot - Average Wave Period
APD
sec
5-day plot - Mean Wave Direction
MWD
 
5-day plot - Atmospheric Pressure
PRES
in
5-day plot - Pressure Tendency
PTDY
in
5-day plot - Air Temperature
ATMP
°F
5-day plot - Water Temperature
WTMP
°F
5-day plot - Dew Point
DEWP
°F
5-day plot - Salinity
SAL
psu
5-day plot - Visibility
VIS
nmi
5-day plot - Tide (above MLLW)
TIDE
ft
2023-06-08 04:54 pmENE 9.9 13.0----29.69- 61.3 72.3----
2023-06-08 04:48 pmENE 11.1 13.0----29.69- 61.0 72.3----
2023-06-08 04:42 pmENE 11.1 13.0----29.69- 61.0 72.5----
2023-06-08 04:36 pmENE 9.9 12.0----29.70- 60.6 72.3----
2023-06-08 04:30 pm NE 8.9 11.1----29.70- 60.4 72.3----
2023-06-08 04:24 pm NE 7.0 8.9----29.70- 60.3 72.5----
2023-06-08 04:18 pm NE 6.0 8.0----29.70- 60.3 72.5----
2023-06-08 04:12 pmENE 5.1 7.0----29.70- 59.5 72.5----
2023-06-08 04:06 pm NE 5.1 7.0----29.70- 59.4 72.7----
2023-06-08 04:00 pmNNE 4.1 7.0----29.70+0.05 59.2 72.7----
2023-06-08 03:54 pmNNE 5.1 8.9----29.70- 59.0 72.7----
2023-06-08 03:48 pmNNE 7.0 9.9----29.70- 58.5 72.7----
2023-06-08 03:42 pmNNE 7.0 9.9----29.70- 57.9 72.7----
2023-06-08 03:36 pmNNE 6.0 8.9----29.70- 57.9 72.5----
2023-06-08 03:30 pm N 4.1 7.0----29.71- 58.1 72.5----
2023-06-08 03:24 pmNNW 4.1 8.9----29.71- 58.5 72.5----
2023-06-08 03:18 pm N 4.1 9.9------ 58.5 72.5----
2023-06-08 03:12 pm N 5.1 9.9------ 58.5 72.5----
2023-06-08 03:06 pm N 6.0 15.0------ 58.8 72.5----
2023-06-08 03:00 pmNNE 9.9 17.1----29.70+0.03 58.8 72.5----
2023-06-08 02:54 pm N 7.0 15.0----29.70- 59.0 72.3----
2023-06-08 02:48 pmNNE 9.9 19.0----29.70- 59.5 72.3----
2023-06-08 02:42 pmNNE 9.9 15.9----29.70- 59.9 72.1----
2023-06-08 02:36 pmNNE 11.1 15.9----29.70- 61.0 72.3----
2023-06-08 02:30 pmNNE 11.1 18.1----29.70- 62.2 72.3----
2023-06-08 02:24 pm N 11.1 18.1----29.70- 63.5 72.0----
2023-06-08 02:18 pmNNE 9.9 20.0----29.69- 64.6 71.8----
2023-06-08 02:12 pmNNE 12.0 25.1----29.68- 65.1 72.0----
2023-06-08 02:06 pm N 12.0 18.1----29.68- 65.7 72.3----
2023-06-08 02:00 pm N 9.9 15.0----29.68+0.00 66.9 72.1----
2023-06-08 01:54 pm S 1.0 4.1----29.67- 69.4 72.0----
2023-06-08 01:48 pmSSE 2.9 5.1----29.67- 68.7 71.8----
2023-06-08 01:42 pm S 4.1 5.1----29.67- 68.7 71.8----
2023-06-08 01:36 pmSSE 5.1 5.1----29.66- 68.9 71.6----
2023-06-08 01:30 pmSSE 2.9 4.1----29.66- 68.9 71.6----
2023-06-08 01:24 pmSSE 1.9 2.9----29.66- 69.1 71.6----
2023-06-08 01:18 pmSSW 1.9 4.1----29.65- 69.6 71.6----
2023-06-08 01:12 pm S 4.1 5.1----29.65- 68.5 71.6----
2023-06-08 01:06 pm S 4.1 6.0----29.65- 68.4 71.6----
2023-06-08 01:00 pm S 5.1 7.0----29.65-0.02 68.0 71.6----
2023-06-08 12:54 pm S 5.1 7.0----29.65- 67.8 71.4----
2023-06-08 12:48 pm S 6.0 8.0----29.65- 68.2 71.4----
2023-06-08 12:42 pm S 6.0 8.0----29.65- 68.0 71.4----
2023-06-08 12:36 pm S 7.0 8.9----29.65- 67.8 71.4----
2023-06-08 12:30 pm S 7.0 8.0----29.65- 68.0 71.4----
2023-06-08 12:24 pm S 7.0 8.9----29.66- 67.6 71.2----
2023-06-08 12:18 pm S 7.0 8.9----29.66- 67.8 71.2----
2023-06-08 12:12 pm S 8.0 8.9----29.67- 67.8 71.2----
2023-06-08 12:06 pm S 6.0 8.0----29.67- 67.8 71.2----
2023-06-08 12:00 pm S 6.0 8.0----29.67+0.00 67.8 71.2----
2023-06-08 11:54 am S 6.0 7.0----29.67- 67.3 71.1----
2023-06-08 11:48 am S 6.0 7.0----29.67- 67.5 71.1----
2023-06-08 11:42 am S 5.1 6.0----29.68- 67.3 71.1----
2023-06-08 11:36 am S 5.1 7.0----29.68- 67.5 70.9----
2023-06-08 11:30 am S 5.1 6.0----29.68- 67.3 70.9----
2023-06-08 11:24 am S 5.1 8.0----29.68- 67.1 70.9----
2023-06-08 11:18 am S 7.0 8.0----29.68- 67.3 70.7----
2023-06-08 11:12 am S 7.0 8.0----29.68- 67.6 70.7----
2023-06-08 11:06 am S 7.0 8.0----29.68- 67.5 70.7----
2023-06-08 11:00 am S 7.0 8.0----29.68+0.01 67.5 70.7----
2023-06-08 10:54 am S 7.0 8.0----29.68- 67.6 70.5----
2023-06-08 10:48 amSSW 7.0 8.0----29.68- 67.8 70.5----
2023-06-08 10:42 am S 6.0 8.0----29.68- 68.0 70.5----
2023-06-08 10:36 amSSW 5.1 7.0----29.68- 67.8 70.5----
2023-06-08 10:30 amSSW 6.0 7.0----29.67- 68.0 70.5----
2023-06-08 10:24 am S 5.1 7.0----29.67- 68.2 70.3----
2023-06-08 10:18 am S 1.9 5.1----29.67-------
2023-06-08 10:12 am S 5.1 7.0----29.67-------
2023-06-08 10:06 am S 5.1 8.0----29.67-------
2023-06-08 10:00 am S 5.1 7.0----29.67+0.01 67.1 70.2----
2023-06-08 09:54 am S 5.1 6.0----29.67- 67.5 70.2----
2023-06-08 09:48 am S 4.1 6.0----29.67- 67.3 70.2----
2023-06-08 09:42 amSSW 4.1 6.0----29.67- 66.9 70.2----
2023-06-08 09:36 am S 4.1 6.0----29.67- 67.1 70.2----
2023-06-08 09:30 amSSE 4.1 7.0----29.67- 66.9 70.2----
2023-06-08 09:24 am S 4.1 6.0----29.68- 66.7 70.2----
2023-06-08 09:18 am S 2.9 5.1----29.68- 66.9 70.0----
2023-06-08 09:12 am S 2.9 5.1----29.68- 66.6 70.0----
2023-06-08 09:06 am S 4.1 5.1----29.67- 66.7 70.2----
2023-06-08 09:00 am S 2.9 5.1----29.67+0.03 66.7 70.2----
2023-06-08 08:54 am S 4.1 5.1----29.67- 66.4 70.2----
2023-06-08 08:48 am S 2.9 5.1----29.68- 66.4 70.2----
2023-06-08 08:42 am S 4.1 5.1----29.68- 66.6 70.2----
2023-06-08 08:36 amSSE 4.1 5.1----29.68- 66.4 70.2----
2023-06-08 08:30 am SE 4.1 5.1----29.68- 66.4 70.2----
2023-06-08 08:24 amSSE 4.1 5.1----29.68- 66.6 70.3----
2023-06-08 08:18 amESE 2.9 4.1----29.68- 66.9 70.3----
2023-06-08 08:12 amESE 1.9 4.1----29.67- 66.7 70.3----
2023-06-08 08:06 amESE 1.9 2.9----29.67- 67.1 70.3----
2023-06-08 08:00 amESE 1.9 2.9----29.67+0.04 67.6 70.3----
2023-06-08 07:54 am NE 1.0 1.9----29.67- 68.4 70.3----
2023-06-08 07:48 am- 0.0 0.0----29.67- 68.7 70.3----
2023-06-08 07:42 am- 0.0 0.0----29.67- 67.8 70.2----
2023-06-08 07:36 am- 0.0 0.0----29.66- 66.6 70.2----
2023-06-08 07:30 am- 0.0 0.0----29.66- 65.1 70.2----
2023-06-08 07:24 am- 0.0 1.0----29.66- 63.5 70.3----
2023-06-08 07:18 am- 0.0 0.0------ 63.3 70.3----
2023-06-08 07:12 am- 0.0 1.0------ 62.6 70.3----
2023-06-08 07:06 am- 0.0 1.0------ 61.0 70.3----
2023-06-08 07:00 am NW 1.0 1.0----29.66+0.04 60.6 70.3----
2023-06-08 06:54 am- 0.0 0.0----29.66- 60.3 70.2----
2023-06-08 06:48 am- 0.0 1.0----29.65- 61.0 70.2----
2023-06-08 06:42 am- 0.0 0.0----29.65- 60.4 70.2----
2023-06-08 06:36 am- 0.0 1.0----29.66- 60.4 70.2----
2023-06-08 06:30 am- 0.0 1.0----29.66- 60.3 70.2----
2023-06-08 06:24 am- 0.0 1.0----29.65- 60.1 70.0----
2023-06-08 06:18 am- 0.0 1.0----29.65- 59.9 70.0----
2023-06-08 06:12 am- 0.0 1.0----29.65- 59.2 70.0----
2023-06-08 06:06 am- 0.0 0.0----29.65- 59.0 70.0----
2023-06-08 06:00 am- 0.0 1.0----29.65+0.03 59.0 70.0----
2023-06-08 05:54 am- 0.0 1.0----29.65- 59.4 69.8----
2023-06-08 05:48 am- 0.0 1.9----29.64- 59.7 70.0----
2023-06-08 05:42 am W 1.9 2.9----29.64- 60.1 69.8----
2023-06-08 05:36 am W 2.9 2.9----29.64- 60.1 69.8----
2023-06-08 05:30 am W 2.9 4.1----29.64- 59.9 69.8----
2023-06-08 05:24 amWNW 1.9 2.9----29.64- 59.9 69.6----
2023-06-08 05:18 amWNW 1.9 2.9----29.63- 60.1 69.6----
2023-06-08 05:12 amWNW 1.9 2.9----29.63- 60.1 69.6----
2023-06-08 05:06 am W 2.9 2.9----29.63- 59.9 69.6----
2023-06-08 05:00 amWNW 1.0 4.1----29.63+0.00 60.1 69.6----
2023-06-08 04:54 am W 2.9 4.1----29.62- 60.8 69.6----
2023-06-08 04:48 am W 2.9 4.1----29.62- 61.0 69.6----
2023-06-08 04:42 am W 2.9 4.1----29.62- 60.6 69.6----
2023-06-08 04:36 am W 2.9 2.9----29.62- 60.4 69.6----
2023-06-08 04:30 am W 2.9 2.9----29.62- 60.3 69.6----
2023-06-08 04:24 am W 1.9 4.1----29.62- 60.4 69.6----
2023-06-08 04:18 am W 2.9 4.1----29.62- 60.4 69.8----
2023-06-08 04:12 am W 2.9 2.9----29.62- 60.3 69.8----
2023-06-08 04:06 amWNW 1.0 1.9----29.62- 60.6 69.8----
2023-06-08 04:00 amWNW 1.9 2.9----29.62-0.03 60.8 70.0----
2023-06-08 03:54 am W 1.9 2.9----29.62- 60.8 70.0----
2023-06-08 03:48 am W 2.9 2.9----29.62- 60.6 70.0----
2023-06-08 03:42 am W 1.9 2.9----29.62- 60.8 70.0----
2023-06-08 03:36 am W 1.0 2.9----29.62- 60.8 70.2----
2023-06-08 03:30 amWNW 1.9 4.1----29.62- 61.2 70.2----
2023-06-08 03:24 am W 2.9 2.9----29.61- 61.2 70.2----
2023-06-08 03:18 amWNW 1.0 2.9----29.62- 61.3 70.2----
2023-06-08 03:12 amWNW 1.9 2.9----29.62- 61.3 70.2----
2023-06-08 03:06 amWNW 1.0 2.9----29.62- 62.1 70.3----
2023-06-08 03:00 am W 1.9 2.9----29.62-0.04 62.2 70.3----
2023-06-08 02:54 am W 1.9 2.9----29.62- 62.6 70.3----
2023-06-08 02:48 am W 1.9 2.9----29.62- 61.7 70.3----
2023-06-08 02:42 am W 2.9 2.9----29.63- 62.4 70.5----
2023-06-08 02:36 am W 1.9 2.9----29.63- 62.2 70.5----
2023-06-08 02:30 am W 2.9 2.9----29.63- 61.5 70.5----
2023-06-08 02:24 amWNW 1.9 2.9----29.63- 63.0 70.5----
2023-06-08 02:18 am W 1.9 2.9----29.64- 62.4 70.7----
2023-06-08 02:12 am W 2.9 2.9----29.64- 62.8 70.7----
2023-06-08 02:06 am W 1.9 2.9----29.63- 63.1 70.7----
2023-06-08 02:00 amWSW 1.9 2.9----29.63-0.04 62.4 70.9----
2023-06-08 01:54 am W 1.9 2.9----29.63- 63.0 70.9----
2023-06-08 01:48 am W 2.9 2.9----29.64- 62.4 70.9----
2023-06-08 01:42 am W 2.9 2.9----29.64- 63.1 71.1----
2023-06-08 01:36 am W 1.9 2.9----29.64- 63.0 71.1----
2023-06-08 01:30 am W 2.9 2.9----29.64- 62.4 71.1----
2023-06-08 01:24 am W 1.9 1.9----29.64- 62.8 71.1----
2023-06-08 01:18 am W 1.9 2.9----29.65- 63.7 71.1----
2023-06-08 01:12 am W 1.9 2.9----29.65- 63.0 71.1----
2023-06-08 01:06 am W 1.0 1.0----29.65- 63.0 71.1----
2023-06-08 01:00 am- 0.0 1.0----29.65-0.01 62.8 71.1----
2023-06-08 12:54 am- 0.0 1.0----29.65- 63.0 71.1----
2023-06-08 12:48 am W 1.0 1.9----29.65- 63.1 71.2----
2023-06-08 12:42 am W 1.0 1.9----29.65- 63.1 71.2----
2023-06-08 12:36 am NW 1.0 1.9----29.65- 63.1 71.2----
2023-06-08 12:30 amWNW 1.0 1.9----29.66- 63.3 71.2----
2023-06-08 12:24 am NW 1.0 1.9----29.66- 63.5 71.2----
2023-06-08 12:18 am NW 1.0 1.9----29.65- 63.5 71.2----
2023-06-08 12:12 am- 0.0 1.0----29.66- 63.9 71.2----
2023-06-08 12:06 am NW 1.0 1.9----29.66- 63.9 71.2----
2023-06-08 12:00 amNNW 1.0 1.9----29.66+0.00 64.0 71.2----
2023-06-07 11:54 pmNNW 1.0 1.9----29.66- 64.0 71.2----
2023-06-07 11:48 pmNNW 1.9 1.9----29.66- 64.4 71.2----
2023-06-07 11:42 pm- 0.0 1.0----29.66- 64.8 71.2----
2023-06-07 11:36 pm- 0.0 1.0----29.67- 64.9 71.2----
2023-06-07 11:30 pm- 0.0 1.9----29.67- 65.5 71.2----
2023-06-07 11:24 pm W 1.9 4.1----29.67- 65.8 71.2----
2023-06-07 11:18 pmWSW 2.9 6.0----29.67- 66.4 71.2----
2023-06-07 11:12 pm SW 4.1 7.0----29.67- 66.9 71.2----
2023-06-07 11:06 pm SW 6.0 8.9----29.67- 67.1 71.2----
2023-06-07 11:00 pm SW 8.9 9.9----29.67+0.02 67.1 71.2----
2023-06-07 10:54 pmSSW 8.0 9.9----29.67- 67.3 71.4----
2023-06-07 10:48 pm SW 8.9 11.1----29.67- 67.1 71.4----
2023-06-07 10:42 pmSSW 8.9 11.1----29.66- 67.1 71.4----
2023-06-07 10:36 pmSSW 8.0 11.1----29.66- 67.3 71.4----
2023-06-07 10:30 pmSSW 7.0 11.1----29.67- 67.1 71.6----
2023-06-07 10:24 pmSSW 8.0 11.1----29.67- 66.9 71.6----
2023-06-07 10:18 pmSSW 8.9 11.1----29.66- 66.9 71.6----
2023-06-07 10:12 pmSSW 8.9 11.1----29.67- 66.7 71.8----
2023-06-07 10:06 pmSSW 9.9 11.1----29.67- 66.9 71.8----
2023-06-07 10:00 pmSSW 8.0 9.9----29.67+0.01 66.9 72.0----
2023-06-07 09:54 pm SW 8.0 12.0----29.67- 66.7 72.0----
2023-06-07 09:48 pm SW 9.9 14.0----29.66- 66.7 72.1----
2023-06-07 09:42 pmSSW 12.0 14.0----29.66- 66.7 72.1----
2023-06-07 09:36 pmSSW 11.1 13.0----29.66- 66.7 72.1----
2023-06-07 09:30 pmSSW 9.9 12.0----29.66- 67.1 72.3----
2023-06-07 09:24 pmSSW 9.9 12.0----29.66- 67.1 72.3----
2023-06-07 09:18 pmSSW 8.0 9.9----29.66- 66.9 72.5----
2023-06-07 09:12 pmSSW 7.0 9.9----29.66- 66.9 72.5----
2023-06-07 09:06 pmSSW 8.0 9.9----29.66- 66.7 72.7----
2023-06-07 09:00 pmSSW 7.0 9.9----29.66+0.01 66.6 72.7----
2023-06-07 08:54 pmSSW 6.0 8.0----29.66- 66.9 72.9----
2023-06-07 08:48 pmSSW 8.0 9.9----29.66- 66.7 72.9----
2023-06-07 08:42 pmSSW 7.0 9.9----29.66- 66.7 73.0----
2023-06-07 08:36 pmSSW 8.9 11.1----29.65- 66.7 73.0----
2023-06-07 08:30 pmSSW 8.0 8.9----29.66- 66.7 73.0----
2023-06-07 08:24 pmSSW 8.0 9.9----29.65- 66.7 73.2----
2023-06-07 08:18 pmSSW 6.0 8.9----29.65- 66.9 73.2----
2023-06-07 08:12 pmSSW 7.0 9.9----29.65- 66.9 73.4----
2023-06-07 08:06 pmSSW 8.0 9.9----29.65- 66.7 73.4----
2023-06-07 08:00 pmSSW 8.0 8.9----29.65+0.00 66.9 73.6----
2023-06-07 07:54 pmSSW 8.0 9.9----29.65- 67.1 73.8----
2023-06-07 07:48 pmSSW 8.0 9.9----29.65- 67.1 73.9----
2023-06-07 07:42 pmSSW 8.0 11.1----29.65- 67.1 73.9----
2023-06-07 07:36 pmSSW 8.0 9.9----29.65- 67.5 73.9----
2023-06-07 07:30 pmSSW 8.9 9.9----29.65- 67.8 74.1----
2023-06-07 07:24 pm SW 7.0 8.9----29.65- 68.2 74.1----
2023-06-07 07:18 pmSSW 6.0 8.0----29.65- 68.2 74.1----
2023-06-07 07:12 pm SW 5.1 8.0----29.65- 68.4 74.1----
2023-06-07 07:06 pmWSW 5.1 8.9----29.65- 68.4 74.3----
2023-06-07 07:00 pm SW 8.0 9.9----29.65+0.00 68.7 74.3----
2023-06-07 06:54 pm SW 7.0 8.9----29.65- 68.7 74.3----
2023-06-07 06:48 pm SW 6.0 8.9----29.65- 68.9 74.3----
2023-06-07 06:42 pmWSW 6.0 7.0----29.65- 68.9 74.5----
2023-06-07 06:36 pm SW 6.0 8.9----29.65- 69.1 74.5----
2023-06-07 06:30 pm SW 6.0 9.9----29.65- 69.1 74.5----
2023-06-07 06:24 pmSSW 6.0 11.1----29.65- 69.3 74.5----
2023-06-07 06:18 pmSSW 7.0 12.0----29.65- 69.3 74.5----
2023-06-07 06:12 pmSSW 8.0 12.0----29.65- 69.3 74.7----
2023-06-07 06:06 pmSSW 9.9 11.1----29.65- 69.4 74.7----
2023-06-07 06:00 pm SW 7.0 11.1----29.65-0.02 70.0 74.7----
2023-06-07 05:54 pmSSW 7.0 9.9----29.65- 70.5 74.7----
2023-06-07 05:48 pmSSW 7.0 11.1----29.65- 70.5 74.8----
2023-06-07 05:42 pmSSW 7.0 9.9----29.65- 70.3 74.8----
2023-06-07 05:36 pmSSW 7.0 9.9----29.65- 70.3 74.8----
2023-06-07 05:30 pm SW 6.0 8.9----29.65- 71.1 74.8----
2023-06-07 05:24 pm SW 6.0 8.9----29.65- 71.4 74.8----
2023-06-07 05:18 pmSSW 7.0 9.9----29.65- 71.1 74.8----
2023-06-07 05:12 pmSSW 8.0 9.9----29.65- 71.4 74.8----
2023-06-07 05:06 pmSSW 7.0 8.9----29.65- 71.6 74.8----
2023-06-07 05:00 pmSSW 7.0 9.9----29.65-0.02 71.4 74.7----
2023-06-07 04:54 pmSSW 8.9 9.9----29.65- 71.1 74.7----